When you browse on this site, cookies collect data to enhance your experience and personalize the content and advertising you see.
Visit our Privacy Policy to learn more. By continuing to use the site, you agree to this use of cookies and data.
  • In Schweiz
  • Länderverzeichnis
  • Für 7 Tage
  • Wassertemperatur
  • Satellitenkarten
  • Wetterkarte
  • Widgets
  • user-avatar
    Anmelden

    Stündliche Wetter Julara

    Heute, 24 Januar, Donnerstag

    Zeit Temperatur Niederschläge Wind Luftdruck Luftfeuchtigkeit
    00:00 +40°C° 0 mm 2 m/S 712 mmHg 21%
    01:00 +39°C° 0 mm 2 m/S 712 mmHg 21%
    02:00 +38°C° 0 mm 3 m/S 712 mmHg 21%
    03:00 +37°C° 0 mm 4 m/S 712 mmHg 21%
    04:00 +36°C° 0 mm 4 m/S 712 mmHg 21%
    05:00 +35°C° 0 mm 4 m/S 712 mmHg 21%
    06:00 +34°C° 0 mm 4 m/S 712 mmHg 22%
    07:00 +38°C° 0 mm 6 m/S 713 mmHg 19%
    08:00 +40°C° 0 mm 7 m/S 713 mmHg 16%
    09:00 +44°C° 0 mm 9 m/S 713 mmHg 13%
    10:00 +45°C° 0 mm 8 m/S 713 mmHg 12%
    11:00 +46°C° 0 mm 7 m/S 713 mmHg 11%
    12:00 +47°C° 0 mm 6 m/S 712 mmHg 10%
    13:00 +47°C° 0 mm 6 m/S 712 mmHg 10%
    14:00 +48°C° 0 mm 5 m/S 711 mmHg 9%
    15:00 +48°C° 0 mm 5 m/S 711 mmHg 9%
    16:00 +48°C° 0 mm 5 m/S 711 mmHg 8%
    17:00 +48°C° 0 mm 5 m/S 711 mmHg 7%
    18:00 +48°C° 0 mm 6 m/S 711 mmHg 7%
    19:00 +46°C° 0 mm 6 m/S 711 mmHg 8%
    20:00 +44°C° 0 mm 6 m/S 711 mmHg 9%
    21:00 +41°C° 0 mm 5 m/S 711 mmHg 10%
    22:00 +41°C° 0 mm 6 m/S 711 mmHg 10%
    23:00 +40°C° 0 mm 6 m/S 711 mmHg 11%

    Morgen, 25 Januar, Freitag

    Zeit Temperatur Niederschläge Wind Luftdruck Luftfeuchtigkeit
    00:00 +39°C° 0 mm 6 m/S 712 mmHg 12%
    01:00 +38°C° 0 mm 6 m/S 711 mmHg 13%
    02:00 +36°C° 0 mm 5 m/S 711 mmHg 14%
    03:00 +35°C° 0 mm 4 m/S 711 mmHg 15%
    04:00 +35°C° 0 mm 4 m/S 711 mmHg 17%
    05:00 +34°C° 0 mm 4 m/S 711 mmHg 19%
    06:00 +33°C° 0 mm 3 m/S 711 mmHg 21%
    07:00 +35°C° 0 mm 4 m/S 712 mmHg 24%
    08:00 +37°C° 0 mm 5 m/S 713 mmHg 28%
    09:00 +40°C° 0 mm 7 m/S 713 mmHg 31%
    10:00 +42°C° 0 mm 6 m/S 713 mmHg 27%
    11:00 +43°C° 0 mm 5 m/S 713 mmHg 23%
    12:00 +44°C° 0 mm 4 m/S 713 mmHg 19%
    13:00 +44°C° 0 mm 4 m/S 712 mmHg 19%
    14:00 +44°C° 0 mm 3 m/S 712 mmHg 19%
    15:00 +44°C° 0 mm 3 m/S 712 mmHg 18%
    16:00 +44°C° 0 mm 3 m/S 712 mmHg 18%
    17:00 +43°C° 0 mm 3 m/S 712 mmHg 18%
    18:00 +42°C° 0 mm 2 m/S 711 mmHg 18%
    19:00 +41°C° 0 mm 2 m/S 712 mmHg 19%
    20:00 +40°C° 0 mm 1 m/S 712 mmHg 21%
    21:00 +39°C° 0 mm 1 m/S 712 mmHg 22%
    22:00 +39°C° 0 mm 1 m/S 712 mmHg 23%
    23:00 +38°C° 0 mm 2 m/S 712 mmHg 24%

    übermorgen, 26 Januar, Samstag

    Zeit Temperatur Niederschläge Wind Luftdruck Luftfeuchtigkeit
    00:00 +38°C° 0 mm 2 m/S 712 mmHg 24%
    01:00 +37°C° 0 mm 4 m/S 712 mmHg 24%
    02:00 +36°C° 0 mm 5 m/S 712 mmHg 23%
    03:00 +36°C° 0 mm 7 m/S 712 mmHg 22%
    04:00 +35°C° 0 mm 6 m/S 712 mmHg 25%
    05:00 +34°C° 0 mm 5 m/S 712 mmHg 27%
    06:00 +33°C° 0 mm 5 m/S 712 mmHg 30%
    07:00 +35°C° 0 mm 4 m/S 713 mmHg 29%
    08:00 +37°C° 0 mm 4 m/S 713 mmHg 27%
    09:00 +39°C° 0 mm 3 m/S 714 mmHg 26%
    10:00 +40°C° 0 mm 3 m/S 713 mmHg 23%
    11:00 +43°C° 0 mm 3 m/S 713 mmHg 20%
    12:00 +44°C° 0 mm 3 m/S 713 mmHg 18%
    13:00 +44°C° 0 mm 3 m/S 712 mmHg 18%
    14:00 +43°C° 0 mm 2 m/S 712 mmHg 17%
    15:00 +43°C° 0 mm 2 m/S 711 mmHg 17%
    16:00 +43°C° 0.3 mm 4 m/S 711 mmHg 20%
    17:00 +43°C° 0.3 mm 7 m/S 711 mmHg 23%
    18:00 +42°C° 0.3 mm 9 m/S 711 mmHg 25%
    19:00 +40°C° 0.6 mm 9 m/S 712 mmHg 27%
    20:00 +39°C° 0.6 mm 8 m/S 713 mmHg 30%
    21:00 +38°C° 0.6 mm 8 m/S 713 mmHg 32%
    22:00 +37°C° 0.5 mm 9 m/S 713 mmHg 33%
    23:00 +36°C° 0.5 mm 10 m/S 714 mmHg 34%

    27 Januar, Sonntag

    Zeit Temperatur Niederschläge Wind Luftdruck Luftfeuchtigkeit
    00:00 +34°C° 0.5 mm 10 m/S 714 mmHg 36%
    01:00 +33°C° 0 mm 10 m/S 714 mmHg 38%
    02:00 +32°C° 0 mm 9 m/S 713 mmHg 41%
    03:00 +31°C° 0 mm 9 m/S 713 mmHg 43%
    04:00 +29°C° 0 mm 9 m/S 714 mmHg 44%
    05:00 +28°C° 0 mm 9 m/S 714 mmHg 46%
    06:00 +28°C° 0 mm 9 m/S 714 mmHg 47%
    07:00 +28°C° 0.4 mm 9 m/S 715 mmHg 47%
    08:00 +28°C° 0.4 mm 10 m/S 715 mmHg 48%
    09:00 +28°C° 0.4 mm 10 m/S 715 mmHg 48%
    10:00 +32°C° 0 mm 10 m/S 715 mmHg 42%
    11:00 +34°C° 0 mm 9 m/S 715 mmHg 36%
    12:00 +38°C° 0 mm 9 m/S 715 mmHg 30%
    13:00 +38°C° 0.1 mm 9 m/S 714 mmHg 28%
    14:00 +39°C° 0.1 mm 9 m/S 714 mmHg 27%
    15:00 +40°C° 0.1 mm 9 m/S 714 mmHg 26%
    16:00 +38°C° 0.2 mm 9 m/S 714 mmHg 32%
    17:00 +34°C° 0.2 mm 10 m/S 714 mmHg 39%
    18:00 +32°C° 0.2 mm 11 m/S 714 mmHg 45%
    19:00 +31°C° 0.1 mm 10 m/S 714 mmHg 48%
    20:00 +29°C° 0.1 mm 9 m/S 715 mmHg 51%
    21:00 +28°C° 0.1 mm 8 m/S 715 mmHg 54%
    22:00 +27°C° 0 mm 8 m/S 715 mmHg 54%
    23:00 +27°C° 0 mm 8 m/S 715 mmHg 54%

    28 Januar, Montag

    Zeit Temperatur Niederschläge Wind Luftdruck Luftfeuchtigkeit
    00:00 +26°C° 0 mm 8 m/S 715 mmHg 55%
    01:00 +26°C° 0.1 mm 7 m/S 715 mmHg 55%
    02:00 +26°C° 0.1 mm 7 m/S 715 mmHg 56%
    03:00 +26°C° 0.1 mm 6 m/S 715 mmHg 56%
    04:00 +26°C° 0 mm 5 m/S 715 mmHg 56%
    05:00 +26°C° 0 mm 5 m/S 715 mmHg 55%
    06:00 +25°C° 0 mm 4 m/S 715 mmHg 55%
    07:00 +26°C° 0 mm 5 m/S 716 mmHg 51%
    08:00 +27°C° 0 mm 5 m/S 716 mmHg 48%
    09:00 +28°C° 0 mm 5 m/S 717 mmHg 45%
    10:00 +29°C° 0.2 mm 5 m/S 716 mmHg 44%
    11:00 +30°C° 0.2 mm 5 m/S 716 mmHg 43%
    12:00 +30°C° 0.2 mm 5 m/S 716 mmHg 43%
    13:00 +32°C° 0.1 mm 6 m/S 715 mmHg 41%
    14:00 +33°C° 0.1 mm 6 m/S 714 mmHg 40%
    15:00 +33°C° 0.1 mm 6 m/S 714 mmHg 38%
    16:00 +33°C° 0 mm 6 m/S 714 mmHg 39%
    17:00 +33°C° 0 mm 6 m/S 714 mmHg 40%
    18:00 +32°C° 0 mm 6 m/S 714 mmHg 41%
    19:00 +32°C° 0 mm 7 m/S 714 mmHg 41%
    20:00 +32°C° 0 mm 7 m/S 715 mmHg 42%
    21:00 +30°C° 0 mm 7 m/S 715 mmHg 43%
    22:00 +30°C° 0.1 mm 6 m/S 715 mmHg 45%
    23:00 +30°C° 0.1 mm 6 m/S 715 mmHg 46%

    29 Januar, Dienstag

    Zeit Temperatur Niederschläge Wind Luftdruck Luftfeuchtigkeit
    00:00 +29°C° 0.1 mm 6 m/S 715 mmHg 48%
    01:00 +29°C° 0.3 mm 6 m/S 715 mmHg 50%
    02:00 +28°C° 0.3 mm 6 m/S 715 mmHg 53%
    03:00 +28°C° 0.3 mm 6 m/S 714 mmHg 55%
    04:00 +28°C° 0.3 mm 6 m/S 714 mmHg 57%
    05:00 +27°C° 0.3 mm 5 m/S 714 mmHg 59%
    06:00 +27°C° 0.3 mm 5 m/S 715 mmHg 61%
    07:00 +28°C° 0.2 mm 6 m/S 715 mmHg 56%
    08:00 +29°C° 0.2 mm 6 m/S 715 mmHg 51%
    09:00 +32°C° 0.2 mm 7 m/S 716 mmHg 46%
    10:00 +34°C° 0.1 mm 6 m/S 715 mmHg 42%
    11:00 +35°C° 0.1 mm 6 m/S 715 mmHg 37%
    12:00 +38°C° 0.1 mm 6 m/S 714 mmHg 32%
    13:00 +39°C° 0 mm 6 m/S 714 mmHg 30%
    14:00 +39°C° 0 mm 6 m/S 713 mmHg 28%
    15:00 +40°C° 0 mm 6 m/S 712 mmHg 27%
    16:00 +40°C° 0 mm 6 m/S 713 mmHg 27%
    17:00 +39°C° 0 mm 6 m/S 713 mmHg 28%
    18:00 +39°C° 0 mm 7 m/S 713 mmHg 28%
    19:00 +38°C° 0 mm 7 m/S 713 mmHg 30%
    20:00 +36°C° 0 mm 6 m/S 713 mmHg 31%
    21:00 +36°C° 0 mm 6 m/S 714 mmHg 33%
    22:00 +35°C° 0 mm 6 m/S 714 mmHg 37%
    23:00 +34°C° 0 mm 5 m/S 714 mmHg 40%
    Mehr zeigen